Regional Weather Roundup
Issued by NWS

Home | Current Version | Previous Version | Graphics & Text | Print | Product List | Glossary Off
Versions: 1 2 3 4 5 6 7 8 9 10 11 12 13 14 15 16 17 18 19 20 21 22 23 24 25 26 27 28 29 30 31 32 33 34 35 36 37 38 39 40 41 42 43 44 45 46 47 48 49 50

000
ASUS43 KMKX 240011
RWRWI

WISCONSIN REGIONAL WEATHER ROUNDUP
NATIONAL WEATHER SERVICE MILWAUKEE/SULLIVAN WI
700 PM CDT SAT JUL 23 2016

NOTE: "FAIR" INDICATES FEW OR NO CLOUDS BELOW 12,000 FEET WITH NO
SIGNIFICANT WEATHER AND/OR OBSTRUCTIONS TO VISIBILITY.

WIZ001-002-006>008-014>016-023>028-240100-
NORTHWEST WISCONSIN

CITY           SKY/WX    TMP DP  RH WIND       PRES   REMARKS
SUPERIOR ARPT  CLOUDY    64  61  89 E6        29.86F
6HR MIN TEMP:  64; 6HR MAX TEMP:  66;

ASHLAND        CLOUDY    71  67  87 CALM      29.86F
6HR MIN TEMP:  70; 6HR MAX TEMP:  76; 6HR PCP: TRACE;

HAYWARD        PTSUNNY   73  70  90 S5        29.87F
6HR MIN TEMP:  72; 6HR MAX TEMP:  80; 6HR PCP:  0.14;

SIREN          MOSUNNY   73  70  88 SE6       29.83F
CUMBERLAND     CLOUDY    72  68  88 SE6       29.85F
RICE LAKE      CLOUDY    72  69  91 SE10      29.87S
6HR MIN TEMP:  71; 6HR MAX TEMP:  75; 6HR PCP:  0.41;

CHETEK         RAIN      71  70  99 E6G16     29.86F
6HR MIN TEMP:  70; 6HR MAX TEMP:  74; 6HR PCP:  0.50;

LADYSMITH      RAIN      72  69  91 CALM      29.90S
6HR MIN TEMP:  72; 6HR MAX TEMP:  79; 6HR PCP:  0.05;

EAU CLAIRE     LGT RAIN  71  70  96 E3        29.85F FOG
6HR MIN TEMP:  71; 6HR MAX TEMP:  75; 6HR PCP:  0.29;

MENOMONIE      CLOUDY    72  71  99 E3        29.86F
6HR MIN TEMP:  71; 6HR MAX TEMP:  77; 6HR PCP:  0.44;

NEW RICHMOND   PTSUNNY   74  70  86 SE9       29.83S
6HR MIN TEMP:  69; 6HR MAX TEMP:  75; 6HR PCP:  1.19;

OSCEOLA        CLOUDY    76  74  93 SE8       29.84F
6HR MIN TEMP:  69; 6HR MAX TEMP:  76; 6HR PCP:  0.75;

$$

WIZ003>005-009-010-017-018-240100-
NORTH CENTRAL WISCONSIN

CITY           SKY/WX    TMP DP  RH WIND       PRES   REMARKS
MANITOWISH WTR LGT RAIN  74  73  97 S5        29.91S
6HR MIN TEMP:  74; 6HR MAX TEMP:  82;

ARBOR VITAE    LGT RAIN  74  71  89 S6        29.92R
6HR MIN TEMP:  74; 6HR MAX TEMP:  82;

WOODRUFF       LGT RAIN  74  71  89 S6        29.92R
6HR MIN TEMP:  74; 6HR MAX TEMP:  82;

RHINELANDER    CLOUDY    74  70  87 SE3       29.93S
6HR MIN TEMP:  74; 6HR MAX TEMP:  84; 6HR PCP:  0.01;

EAGLE RIVER    CLOUDY    74  64  70 SE3       29.92F
6HR MIN TEMP:  74; 6HR MAX TEMP:  84;

LAND O LAKES   LGT RAIN  76  65  68 SE5       29.93F
6HR MIN TEMP:  76; 6HR MAX TEMP:  85;

PHILLIPS       RAIN      72  70  93 S10       29.90F
6HR MIN TEMP:  72; 6HR MAX TEMP:  81; 6HR PCP:  0.02;

TOMAHAWK       CLOUDY    72  70  93 CALM      29.92S
6HR MIN TEMP:  72; 6HR MAX TEMP:  82;

MEDFORD        CLOUDY    69  69 100 CALM      29.91R
6HR MIN TEMP:  69; 6HR MAX TEMP:  77; 6HR PCP:  0.05;

MERRILL        CLOUDY    74  67  81 S5        29.92S
6HR MIN TEMP:  74; 6HR MAX TEMP:  83;

$$

WIZ029-030-035-036-043>047-240100-
CENTRAL WISCONSIN

CITY           SKY/WX    TMP DP  RH WIND       PRES   REMARKS
WAUSAU         CLOUDY    72  67  84 S9        29.90S
6HR MIN TEMP:  72; 6HR MAX TEMP:  83; 6HR PCP: TRACE;

MOSINEE        PTSUNNY   70  68  94 S7        29.92S
MARSHFIELD     CLOUDY    70  66  87 SE6       29.89F
6HR MIN TEMP:  70; 6HR MAX TEMP:  80; 6HR PCP:  0.02;

STEVENS POINT  LGT RAIN  69  67  94 S5        29.91S
6HR MIN TEMP:  69; 6HR MAX TEMP:  80; 6HR PCP:  0.05;

WAUPACA        DRIZZLE   76  76  99 CALM      29.90F
6HR MIN TEMP:  76; 6HR MAX TEMP:  86;

WAUTOMA        LGT RAIN  72  71  97 S7        29.91F
6HR MIN TEMP:  72; 6HR MAX TEMP:  83; 6HR PCP:  0.13;

WISC RAPIDS    LGT RAIN  70  66  87 S9        29.89F
6HR MIN TEMP:  70; 6HR MAX TEMP:  82; 6HR PCP:  0.21;

CAMP DOUGLAS   CLOUDY    70  69  96 SE12      29.88F
6HR MIN TEMP:  70; 6HR MAX TEMP:  75; 6HR PCP:  0.71;

$$

WIZ011>013-019>022-031-037>040-048>050-240100-
NORTHEAST WISCONSIN

CITY           SKY/WX    TMP DP  RH WIND       PRES   REMARKS
ANTIGO         CLOUDY    74  73  94 CALM      29.93S
6HR MIN TEMP:  74; 6HR MAX TEMP:  81;

SHAWANO        DRIZZLE   79  71  76 S5        29.89F HX  82
6HR MIN TEMP:  79; 6HR MAX TEMP:  86;

OCONTO         CLOUDY    78  71  78 SE7       29.89F HX  81
6HR MIN TEMP:  78; 6HR MAX TEMP:  84;

STURGEON BAY   PTSUNNY   75  65  70 S6        29.92F
6HR MIN TEMP:  75; 6HR MAX TEMP:  83;

GREEN BAY      CLOUDY    78  71  79 S7        29.90F HX  80
6HR MIN TEMP:  78; 6HR MAX TEMP:  87;

MANITOWOC      CLOUDY    72  68  87 CALM      29.92F
6HR MIN TEMP:  72; 6HR MAX TEMP:  83;

APPLETON       LGT RAIN  75  66  73 SW7       29.91F
CLINTONVILLE   DRIZZLE   77  73  88 SW5       29.89F
OSHKOSH        LGT RAIN  75  71  87 W3        29.92F
6HR MIN TEMP:  75; 6HR MAX TEMP:  86; 6HR PCP:  0.03;

$$

WIZ032>034-041-042-053>061-240100-
SOUTHWEST WISCONSIN

CITY           SKY/WX    TMP DP  RH WIND       PRES   REMARKS
LA CROSSE      CLOUDY    75  69  81 SE9       29.82F
6HR MIN TEMP:  72; 6HR MAX TEMP:  75; 6HR PCP:  0.52;

SPARTA         CLOUDY    70  67  90 SE7       29.86F
VIROQUA        CLOUDY    68  68 100 SE12      29.88F
6HR MIN TEMP:  68; 6HR MAX TEMP:  71; 6HR PCP:  0.45;

BOSCOBEL       LGT RAIN  72  70  93 CALM      29.89F
6HR MIN TEMP:  71; 6HR MAX TEMP:  75; 6HR PCP:  0.81;

PRAIRIE DU CHI CLOUDY    70  69  96 E9        29.87F
6HR MIN TEMP:  69; 6HR MAX TEMP:  72; 6HR PCP:  0.49;

PLATTEVILLE    CLOUDY    70  70 100 E10       29.94S
6HR MIN TEMP:  70; 6HR MAX TEMP:  77; 6HR PCP:  1.15;

$$

WIZ056-057-062-063-064-067-068-240100-
SOUTH CENTRAL WISCONSIN

CITY           SKY/WX    TMP DP  RH WIND       PRES   REMARKS
REEDSBURG      LGT RAIN  69  69 100 CALM      29.91F
                                      6HR PCP:  0.55;

BARABOO/DELLS  TSTM      72  70  94 SE5       29.92F
6HR MIN TEMP:  71; 6HR MAX TEMP:  78; 6HR PCP:  0.55;

LONE ROCK      LGT RAIN  71  70  96 SE8       29.92F
6HR MIN TEMP:  70; 6HR MAX TEMP:  74; 6HR PCP:  0.80;

MINERAL POINT  RAIN      70  70 100 E7        29.94F
MADISON        TSTM      71  70  96 N7        29.92F
6HR MIN TEMP:  70; 6HR MAX TEMP:  83; 6HR PCP:  0.71;

MIDDLETON      CLOUDY    73  73 100 CALM      29.97R
6HR MIN TEMP:  69; 6HR MAX TEMP:  81; 6HR PCP:  0.77;

WATERTOWN      CLOUDY    72  72  99 CALM      29.93F
MONROE         TSTM      70  70 100 N14G28    29.96R
JANESVILLE     TSTM      75  73  94 E12       29.90F
$$

WIZ051-052-058>065-066-070>072-240100-
SOUTHEAST WISCONSIN

CITY           SKY/WX    TMP DP  RH WIND       PRES   REMARKS
MILWAUKEE      CLOUDY    76  72  87 S8        29.93F
6HR MIN TEMP:  72; 6HR MAX TEMP:  87; 6HR PCP:  0.61;

WAUKESHA       CLOUDY    70  66  88 S5        29.95F
MILWAUKEE/TIMM NOT AVBL
RACINE         CLOUDY    74  70  87 S6        29.96R
6HR MIN TEMP:  72; 6HR MAX TEMP:  85; 6HR PCP:  0.67;

BURLINGTON     LGT RAIN  72  70  93 CALM      29.96R
6HR MIN TEMP:  72; 6HR MAX TEMP:  87; 6HR PCP:  0.07;

KENOSHA        CLOUDY    74  67  78 SE6       29.95S
6HR MIN TEMP:  70; 6HR MAX TEMP:  87; 6HR PCP:  0.38;

FOND DU LAC    CLOUDY    76  72  87 W5        29.93S
6HR MIN TEMP:  76; 6HR MAX TEMP:  87; 6HR PCP:  0.03;

SHEBOYGAN      CLOUDY    77  74  90 CALM      29.91F
6HR MIN TEMP:  77; 6HR MAX TEMP:  84; 6HR PCP:  0.02;

WEST BEND      CLOUDY    72  68  88 S3        29.93R
JUNEAU         CLOUDY    72  70  93 SW6       29.96R
6HR MIN TEMP:  71; 6HR MAX TEMP:  82; 6HR PCP:  0.08;

$$

LSZ147-162-240100-
LAKE SUPERIOR

STATION/POSITION TIME  TEMP    WIND        PRES    WAVE
                       AIR SEA DIR/SP/G            HT/PER
                 (UTC) (F)     (DEG/KT/KT) (MB)    (FT/S)
W MID LAKE BUOY  2350   61 58   60/ 14/ 16 1010.5F   2/ 4
DEVILS ISLAND    0000   62      40/ 12/ 13 1010.6F
PORT WING        2300   63      40/ 13/ 16 1011.2F
SAXON HARBOR     2340   70     280/  2/  3 1010.5F
$$

LMZ867-665-643>646-240100-
LAKE MICHIGAN

STATION/POSITION TIME  TEMP    WIND        PRES    WAVE
                       AIR SEA DIR/SP/G            HT/PER
                 (UTC) (F)     (DEG/KT/KT) (MB)    (FT/S)
CHAMBERS ISLAND  2300   79     110/  4/  6 1013.2F
S GRC1F1C2F2C3F3C4F4C5F5C6F6C7F7C8M1C9M2Ca!


USA.gov is the U.S. government's official web portal to all federal, state and local government web resources and services.